PDT,Max TemperatureF,Mean TemperatureF,Min TemperatureF,Max Dew PointF,MeanDew PointF,Min DewpointF,Max Humidity, Mean Humidity, Min Humidity, Max Sea Level PressureIn, Mean Sea Level PressureIn, Min Sea Level PressureIn, Max VisibilityMiles, Mean VisibilityMiles, Min VisibilityMiles, Max Wind SpeedMPH, Mean Wind SpeedMPH, Max Gust SpeedMPH,PrecipitationIn, CloudCover, Events, WindDirDegrees
2011-10-1,73,65,56,50,49,46,72,57,41,29.93,29.89,29.82,10,10,10,12,4,15,0.00,5,,315
2011-10-2,74,61,48,48,45,41,86,59,31,29.97,29.92,29.84,10,10,10,16,5,22,T,5,Rain,306
2011-10-3,57,55,52,52,51,48,93,85,77,29.90,29.88,29.86,10,10,6,16,3,20,0.24,8,Rain,302
2011-10-4,65,57,48,50,47,39,96,70,43,29.88,29.76,29.53,10,9,5,12,3,15,0.23,7,Rain,198
2011-10-5,54,50,45,44,41,39,86,73,59,29.79,29.66,29.52,10,10,4,16,4,21,0.04,7,Rain,267
2011-10-6,60,50,39,44,40,37,100,72,44,30.15,30.00,29.79,10,9,0,9,2,13,0.00,6,Fog,350
2011-10-7,66,56,45,49,45,41,86,65,44,30.25,30.21,30.16,10,10,10,10,2,12,0.00,6,,307
2011-10-8,72,57,41,48,44,35,93,60,27,30.21,30.16,30.08,10,10,10,9,2,12,0.00,1,,275
2011-10-9,73,58,43,51,45,40,89,62,35,30.13,30.01,29.88,10,10,10,12,2,15,0.00,3,,338
2011-10-10,70,62,54,57,54,50,93,78,63,29.86,29.79,29.74,10,10,6,9,2,12,0.13,6,Rain,4
2011-10-11,71,60,48,52,45,39,93,63,33,30.20,30.03,29.83,10,10,10,21,6,25,0.00,4,,271
2011-10-12,63,52,40,46,43,38,92,72,51,30.27,30.20,30.12,10,10,9,7,1,8,0.00,2,,165
2011-10-13,70,55,40,49,44,37,92,66,39,30.17,30.04,29.92,10,9,4,7,1,7,0.00,1,,178
2011-10-14,79,62,44,52,47,43,93,64,35,29.98,29.92,29.83,10,10,9,9,1,6,0.00,0,,197
2011-10-15,80,65,50,55,51,48,89,64,39,29.99,29.92,29.85,10,10,10,7,1,9,0.00,1,,256
2011-10-16,77,63,48,56,49,41,93,64,35,30.23,30.06,29.94,10,10,10,13,4,17,0.00,3,,358
2011-10-17,78,59,40,47,41,38,86,56,26,30.31,30.21,30.11,10,10,10,8,1,9,0.00,0,,206
2011-10-18,83,62,41,46,41,38,89,55,20,30.13,30.04,29.94,10,10,10,12,2,13,0.00,0,,230
2011-10-19,76,62,47,46,44,37,86,56,25,30.09,30.02,29.96,10,10,10,16,4,20,0.00,0,,332
2011-10-20,74,59,43,46,43,39,89,59,29,30.11,30.06,29.99,10,10,10,7,1,9,0.00,0,,11
2011-10-21,72,58,44,47,45,41,92,65,38,30.30,30.24,30.12,10,10,9,7,1,9,0.00,0,,9
2011-10-22,75,59,42,48,44,40,96,66,35,30.36,30.27,30.18,10,10,9,7,1,8,0.00,0,,170
2011-10-23,75,58,40,50,45,38,92,65,38,30.20,30.12,30.01,10,10,10,8,2,10,0.00,0,,353
2011-10-24,64,53,41,48,40,34,83,59,34,30.25,30.16,30.09,10,10,10,12,3,15,0.00,4,,338
2011-10-25,62,47,31,35,31,26,89,57,25,30.36,30.29,30.23,10,10,9,12,2,14,0.00,0,,207
2011-10-26,66,47,27,32,27,19,92,56,19,30.37,30.29,30.20,10,10,10,8,1,14,0.00,0,,220
2011-10-27,66,49,32,36,29,25,78,50,22,30.24,30.17,30.08,10,10,7,7,1,8,0.00,0,,200
2011-10-28,67,51,34,35,31,28,82,53,24,30.23,30.17,30.12,10,10,7,10,1,12,0.00,1,,175
2011-10-29,70,59,47,52,42,32,86,66,45,30.33,30.27,30.22,10,10,10,9,2,10,0.00,5,,346
2011-10-30,71,57,43,55,48,41,96,74,51,30.28,30.21,30.13,10,10,8,8,1,9,0.01,4,,277
2011-10-31,61,50,38,56,42,32,86,64,42,30.38,30.28,30.19,10,10,3,14,5,17,T,6,Rain,333